Weather History for Gustavus, AK

Change the Weather History Date:

Thursday, April 11, 2013

  Actual Average Record
Temperature  
Mean Temperature 32 °F -  
Max Temperature 37 °F 44 °F 60 °F (2004)
Min Temperature 28 °F 29 °F 3 °F (1968)
Degree Days  
Heating Degree Days 32    
Moisture  
Dew Point 29 °F    
Average Humidity 83    
Maximum Humidity 100    
Minimum Humidity 65    
Precipitation  
Precipitation 0.00 in - - ()
Sea Level Pressure  
Sea Level Pressure 30.05 in    
Wind  
Wind Speed 7 mph (SE)    
Max Wind Speed 14 mph    
Max Gust Speed 16 mph    
Visibility 9 miles    
Events      
Averages and records for this station are not official NWS values.
T = Trace of Precipitation, MM = Missing Value Source: NWS Daily Summary

Daily Weather History Graph

Daily Weather History Graph

Search for Another Location

Airport:

Trip Planner

Search our weather history database for the weather conditions in past years. The results will help you decide how hot, cold, wet, or windy it might be!

Date:

Astronomy

Apr. 11, 2013 Rise Set
Actual Time 6:00 AM AKDT 8:08 PM AKDT
Civil Twilight 5:18 AM AKDT 8:51 PM AKDT
Nautical Twilight 4:23 AM AKDT 9:46 PM AKDT
Astronomical Twilight 3:15 AM AKDT 10:55 PM AKDT
Moon 6:16 AM AKDT (4/11) 10:18 PM AKDT (4/11)
Length of Visible Light 15h 33m
Length of Day
14h 07m
New Moon, 2% of the Moon is Illuminated
Apr 11
New Moon
Apr 18
First Quarter
Apr 25
Full
May 2
Last Quarter
May 9
New

Hourly Weather History & Observations

Time (AKDT) Temp. Windchill Dew Point Humidity Pressure Visibility Wind Dir Wind Speed Gust Speed Precip Events Conditions
12:16 AM 30.2 °F 25.4 °F 28.4 °F 93% 30.06 in 10.0 mi SE 4.6 mph - N/A   Mostly Cloudy
12:36 AM 30.2 °F 23.4 °F 26.6 °F 86% 30.07 in 10.0 mi ESE 6.9 mph - N/A   Mostly Cloudy
12:56 AM 30.2 °F 21.3 °F 28.4 °F 93% 30.07 in 9.0 mi ESE 10.4 mph - N/A   Mostly Cloudy
1:16 AM 32.0 °F 24.8 °F 28.4 °F 87% 30.08 in 7.0 mi SSE 8.1 mph - N/A   Overcast
1:36 AM 30.2 °F 22.6 °F 28.4 °F 93% 30.08 in 10.0 mi SE 8.1 mph - N/A   Overcast
1:56 AM 30.2 °F 23.4 °F 28.4 °F 93% 30.09 in 10.0 mi ESE 6.9 mph - N/A   Mostly Cloudy
2:16 AM 30.2 °F 23.4 °F 28.4 °F 93% 30.09 in 10.0 mi ESE 6.9 mph - N/A   Mostly Cloudy
2:36 AM 32.0 °F - 28.4 °F 87% 30.10 in 10.0 mi Calm Calm - N/A   Overcast
2:56 AM 32.0 °F 25.6 °F 28.4 °F 87% 30.10 in 10.0 mi SE 6.9 mph - N/A   Mostly Cloudy
3:16 AM 32.0 °F 24.8 °F 26.6 °F 80% 30.10 in 10.0 mi ESE 8.1 mph - N/A   Mostly Cloudy
3:36 AM 32.0 °F 26.4 °F 26.6 °F 80% 30.10 in 10.0 mi SSE 5.8 mph - N/A   Overcast
3:56 AM 32.0 °F 27.5 °F 26.6 °F 80% 30.10 in 10.0 mi South 4.6 mph - N/A   Overcast
4:16 AM 30.2 °F 24.3 °F 26.6 °F 86% 30.11 in 10.0 mi SSE 5.8 mph - N/A   Scattered Clouds
4:36 AM 30.2 °F 23.4 °F 28.4 °F 93% 30.10 in 10.0 mi East 6.9 mph - N/A   Partly Cloudy
4:56 AM 28.4 °F 20.4 °F 26.6 °F 93% 30.11 in 10.0 mi SE 8.1 mph - N/A   Scattered Clouds
5:16 AM 30.2 °F 26.7 °F 28.4 °F 93% 30.11 in 10.0 mi SE 3.5 mph - N/A   Overcast
5:36 AM 28.4 °F 24.6 °F 28.4 °F 100% 30.11 in 10.0 mi North 3.5 mph - N/A   Mostly Cloudy
5:56 AM 28.4 °F 23.3 °F 28.4 °F 100% 30.12 in 10.0 mi West 4.6 mph - N/A   Mostly Cloudy
6:16 AM 30.2 °F 22.6 °F 28.4 °F 93% 30.13 in 2.5 mi South 8.1 mph - N/A   Overcast
6:36 AM 30.2 °F 24.3 °F 28.4 °F 93% 30.13 in 1.5 mi South 5.8 mph - N/A   Overcast
6:56 AM 30.2 °F - 28.4 °F 93% 30.13 in 4.0 mi Calm Calm - N/A   Overcast
7:16 AM 30.2 °F 23.4 °F 28.4 °F 93% 30.13 in 10.0 mi East 6.9 mph - N/A   Overcast
7:36 AM 30.2 °F 22.6 °F 28.4 °F 93% 30.13 in 10.0 mi ESE 8.1 mph - N/A   Overcast
7:56 AM 30.2 °F 21.3 °F 28.4 °F 93% 30.13 in 10.0 mi SE 10.4 mph - N/A   Scattered Clouds
8:16 AM 32.0 °F 24.2 °F 28.4 °F 87% 30.13 in 10.0 mi ESE 9.2 mph - N/A   Partly Cloudy
8:36 AM 33.8 °F 25.3 °F 28.4 °F 81% 30.12 in 10.0 mi ESE 11.5 mph - N/A   Scattered Clouds
8:56 AM 33.8 °F 28.6 °F 26.6 °F 75% 30.14 in 10.0 mi SSW 5.8 mph - N/A   Mostly Cloudy
9:16 AM 30.2 °F 26.7 °F 30.2 °F 100% 30.15 in 1.0 mi SSW 3.5 mph - N/A   Overcast
9:36 AM 30.2 °F 25.4 °F 30.2 °F 100% 30.15 in 4.0 mi South 4.6 mph - N/A   Mostly Cloudy
9:56 AM 30.2 °F 24.3 °F 28.4 °F 93% 30.14 in 10.0 mi ESE 5.8 mph - N/A   Mostly Cloudy
10:16 AM 32.0 °F 25.6 °F 30.2 °F 93% 30.14 in 10.0 mi ESE 6.9 mph - N/A   Overcast
10:36 AM 33.8 °F 25.8 °F 28.4 °F 81% 30.14 in 10.0 mi SE 10.4 mph - N/A   Mostly Cloudy
10:56 AM 33.8 °F 26.4 °F 28.4 °F 81% 30.13 in 10.0 mi ESE 9.2 mph - N/A   Overcast
11:16 AM 33.8 °F 24.3 °F 28.4 °F 81% 30.13 in 10.0 mi SE 13.8 mph - N/A   Overcast
11:36 AM 35.6 °F 28.0 °F 28.4 °F 75% 30.13 in 10.0 mi SSE 10.4 mph - N/A   Scattered Clouds
11:56 AM 35.6 °F 27.1 °F 30.2 °F 81% 30.13 in 10.0 mi SE 12.7 mph - N/A   Mostly Cloudy
12:16 PM 33.8 °F 25.3 °F 30.2 °F 87% 30.12 in 10.0 mi ESE 11.5 mph - N/A   Mostly Cloudy
12:36 PM 33.8 °F 26.4 °F 30.2 °F 87% 30.12 in 5.0 mi ESE 9.2 mph - N/A   Overcast
12:56 PM 35.6 °F 28.6 °F 28.4 °F 75% 30.12 in 10.0 mi SE 9.2 mph - N/A   Overcast
1:16 PM 35.6 °F 31.7 °F 28.4 °F 75% 30.12 in 10.0 mi ESE 4.6 mph - N/A   Overcast
1:36 PM 35.6 °F 28.6 °F 30.2 °F 81% 30.12 in 1.5 mi SE 9.2 mph - N/A   Overcast
1:56 PM 35.6 °F 29.2 °F 28.4 °F 75% 30.11 in 10.0 mi SE 8.1 mph - N/A   Scattered Clouds
2:16 PM 35.6 °F 29.2 °F 28.4 °F 75% 30.11 in 10.0 mi ESE 8.1 mph - N/A   Mostly Cloudy
2:36 PM 37.4 °F 29.8 °F 30.2 °F 75% 30.10 in 10.0 mi SE 11.5 mph - N/A   Mostly Cloudy
2:56 PM 35.6 °F 29.2 °F 30.2 °F 81% 30.09 in 10.0 mi SE 8.1 mph - N/A   Scattered Clouds
3:16 PM 37.4 °F 30.8 °F 30.2 °F 75% 30.08 in 10.0 mi SE 9.2 mph - N/A   Clear
3:36 PM 37.4 °F 29.8 °F 28.4 °F 70% 30.08 in 10.0 mi SE 11.5 mph - N/A   Partly Cloudy
3:56 PM 37.4 °F 30.3 °F 28.4 °F 70% 30.07 in 10.0 mi SE 10.4 mph - N/A   Mostly Cloudy
4:16 PM 35.6 °F 28.6 °F 30.2 °F 81% 30.05 in 10.0 mi SE 9.2 mph - N/A   Mostly Cloudy
4:36 PM 35.6 °F 28.0 °F 30.2 °F 81% 30.04 in 10.0 mi ESE 10.4 mph 16.1 mph N/A   Overcast
4:56 PM 35.6 °F 28.6 °F 30.2 °F 81% 30.03 in 3.0 mi SE 9.2 mph - N/A   Overcast
5:16 PM 35.6 °F 32.8 °F 30.2 °F 81% 30.02 in 10.0 mi East 3.5 mph - N/A   Mostly Cloudy
5:36 PM 37.4 °F 29.8 °F 28.4 °F 70% 30.01 in 10.0 mi SE 11.5 mph - N/A   Overcast
5:56 PM 35.6 °F 29.2 °F 30.2 °F 81% 30.00 in 10.0 mi ESE 8.1 mph - N/A   Mostly Cloudy
6:16 PM 35.6 °F 27.1 °F 30.2 °F 81% 29.99 in 10.0 mi SE 12.7 mph - N/A   Mostly Cloudy
6:36 PM 35.6 °F 29.9 °F 28.4 °F 75% 29.97 in 10.0 mi ESE 6.9 mph - N/A   Mostly Cloudy
6:56 PM 35.6 °F 31.7 °F 28.4 °F 75% 29.96 in 10.0 mi East 4.6 mph - N/A   Scattered Clouds
7:16 PM 35.6 °F - 28.4 °F 75% 29.95 in 10.0 mi Calm Calm - N/A   Mostly Cloudy
7:36 PM 35.6 °F - 28.4 °F 75% 29.94 in 10.0 mi Calm Calm - N/A   Mostly Cloudy
7:56 PM 35.6 °F 32.8 °F 28.4 °F 75% 29.92 in 10.0 mi East 3.5 mph - N/A   Mostly Cloudy
8:16 PM 37.4 °F 30.3 °F 26.6 °F 65% 29.91 in 10.0 mi ESE 10.4 mph - N/A   Overcast
8:36 PM 37.4 °F 29.3 °F 26.6 °F 65% 29.90 in 10.0 mi ESE 12.7 mph - N/A   Overcast
8:56 PM 37.4 °F 29.8 °F 26.6 °F 65% 29.89 in 10.0 mi SE 11.5 mph - N/A   Overcast
9:16 PM 37.4 °F 34.9 °F 26.6 °F 65% 29.88 in 10.0 mi ENE 3.5 mph - N/A   Overcast
9:36 PM 35.6 °F 29.9 °F 26.6 °F 70% 29.87 in 10.0 mi SSE 6.9 mph - N/A   Overcast
9:56 PM 35.6 °F 31.7 °F 26.6 °F 70% 29.86 in 10.0 mi NNE 4.6 mph - N/A   Overcast
10:16 PM 35.6 °F - 26.6 °F 70% 29.85 in 10.0 mi Calm Calm - N/A   Overcast
10:36 PM 35.6 °F 32.8 °F 26.6 °F 70% 29.83 in 10.0 mi North 3.5 mph - N/A   Overcast
10:56 PM 33.8 °F - 30.2 °F 87% 29.83 in 10.0 mi Calm Calm - N/A   Overcast
11:16 PM 33.8 °F 28.6 °F 30.2 °F 87% 29.82 in 10.0 mi North 5.8 mph - N/A   Overcast
11:36 PM 33.8 °F 28.6 °F 30.2 °F 87% 29.80 in 10.0 mi NNW 5.8 mph - N/A   Overcast
11:56 PM 33.8 °F 29.6 °F 30.2 °F 87% 29.79 in 10.0 mi NW 4.6 mph - N/A   Overcast